Meath Environmental Platform

Observations for Trim Market St

Time AQI Temp °C Hum % Pres Pa CO μg/m³ H₂S μg/m³ NO μg/m³ NO₂ μg/m³ O₃ μg/m³ SO₂ μg/m³ PM1 μg/m³ PM2.5 μg/m³ PM10 μg/m³
Sunday 23 August 2026
16:49 3 25.8 34 65,793 0.04 0 1.54 12.9 74.17 0 0.71 3.67 4.04
16:47 3 25.7 34 65,793 0 0 41.53 18.75 73.99 0 0.71 4.74 5.21
16:45 3 25.6 34 65,762 0.54 2 40.41 183.81 8.96 23.66 0.71 4.2 4.62
16:40 3 25.5 34 65,776 0 0 0.97 13.45 80.25 0 0.71 4.73 5.01
16:39 3 25.4 35 65,762 0 0 0.97 14.71 78.41 0 0 3.65 4.01
16:35 3 25.2 35 65,760 0 0 1 13.52 79.26 0 1.43 4.17 4.59
16:33 3 25.1 35 65,721 0 0 1.11 17.24 76.26 0 0 3.1 3.42
16:31 3 25.1 35 65,704 0 0 1.04 12.92 74.93 0 0.71 4.18 4.59
16:30 3 25.1 35 65,700 0 0 1.01 13.43 77.14 0 0 3.1 3.41
16:29 3 25.1 35 65,692 0 0 1.08 12.28 77.46 0 0.71 3.65 4.01
16:27 3 25 35 65,719 0 0 1.07 13.17 73.76 0 0.71 3.65 4.01
16:26 3 25.1 35 65,719 0 0 1.01 12.23 75.03 0 0.71 3.11 3.42
16:25 2 25.1 35 65,719 0 0 1.05 11.99 76.57 0 0 3.11 3.42
16:24 2 25.1 35 65,719 0 0 0.98 11.94 74.02 0 1.43 4.18 4.18
16:15 2 25.2 35 65,728 0 0 0.94 12.35 78.34 0 0.71 3.65 4.01
16:14 2 25.3 34 65,732 0 0 0.93 12.35 74.85 0 0.71 3.65 4.17
16:12 2 25.3 35 65,744 0 0 0.94 12.06 73.63 0 0.71 4.19 5.01
16:11 2 25.4 35 65,721 0 0 0.91 12.26 74.32 0 2.14 4.72 5.19
16:10 2 25.4 35 65,719 0 0 0.91 12.42 82.76 0 1.43 4.72 5.19
16:05 2 25.6 34 65,746 0 0 1.05 13.14 76.36 0 0.71 4.21 4.63